Terminal Aerodrome Forecast
Issued by NWS Wilmington, OH

Current Version | Previous Version | Graphics & Text | Print | Product List | Glossary On
Versions: 1 2 3 4 5 6 7 8 9 10 11 12
000
FTUS41 KILN 090500
TAFDAY
TAF
KDAY 090537Z 0906/1006 27007KT P6SM SKC
     FM091500 28010KT P6SM BKN040
     FM100000 31006KT P6SM SCT040=

USA.gov is the U.S. government's official web portal to all federal, state and local government web resources and services.